Location: San Antonio
(29.4240°N, 98.4930°W)
Time: 03:47:24
(UTC-05:00)

Courier 1B Rocket - Visible Passes

Search period start: 15 July 2024 00:00
Search period end: 25 July 2024 00:00
Orbit: 920 x 1201 km, 28.2° (Epoch: 14 July)

Date Brightness Start Highest point End Pass type
(mag) Time Alt. Az. Time Alt. Az. Time Alt. Az.
15 Jul 5.2 22:36:11 10° W 22:42:58 53° SSW 22:44:13 47° SSE visible
16 Jul 5.2 21:34:39 10° W 21:41:49 66° SSW 21:46:40 20° ESE visible
16 Jul 6.4 23:29:04 10° W 23:33:00 26° SW 23:33:00 26° SW visible
17 Jul 5.6 22:27:18 10° W 22:33:53 41° SSW 22:35:27 36° S visible
18 Jul 5.5 21:25:39 10° W 21:32:46 54° SSW 21:37:56 17° SE visible
18 Jul 6.7 23:20:40 10° WSW 23:24:17 20° SW 23:24:17 20° SW visible
19 Jul 6.1 22:18:33 10° W 22:24:44 31° SSW 22:26:47 26° S visible
20 Jul 5.9 21:16:43 10° W 21:23:39 42° SSW 21:29:18 14° SE visible
20 Jul 7.1 23:12:57 10° WSW 23:15:40 14° SW 23:15:40 14° SW visible
21 Jul 6.6 22:10:06 10° WSW 22:15:30 22° SSW 22:18:13 18° S visible
22 Jul 6.4 21:07:57 10° W 21:14:27 32° SSW 21:20:35 10° SSE visible
23 Jul 7.1 22:02:17 10° WSW 22:06:14 15° SSW 22:09:48 11° S visible
24 Jul 6.9 20:59:29 10° W 21:05:11 23° SSW 21:10:39 10° SSE visible
